EW5261 Weather Reports


Display with metric or nautical units.
time (UTC)temp
F
wind
direction
speed
MPH
gust
MPH
rain 1hr
in
rain 24hr
in
rain mn
in
humidity
%
barometer
mb
20240303180040 73 84 1.0 3.0 0.00 0.00 0.00 100 1014.3
20240303175814 74 134 0.0 1.0 0.00 0.00 0.00 100 1013.3
20240303174826 73 160 0.0 3.0 0.00 0.00 0.00 100 1013.7
20240303174539 72 0 0.0 2.0 0.00 0.00 0.00 100 1014.7
20240303173038 72 0 1.0 3.0 0.00 0.00 0.00 100 1015.2
20240303172747 73 148 0.0 5.0 0.00 0.00 0.00 100 1014.1
20240303171806 73 199 0.0 3.0 0.00 0.00 0.00 100 1014.0
20240303171533 72 211 0.0 2.0 0.00 0.00 0.00 100 1015.1
20240303170736 72 130 0.0 1.0 0.00 0.00 0.00 100 1014.2
20240303170039 71 115 0.0 5.0 0.00 0.00 0.00 100 1015.5
20240303164635 71 175 0.0 5.0 0.00 0.00 0.00 100 1014.6
20240303164537 70 140 2.0 6.0 0.00 0.00 0.00 100 1015.7
20240303163636 70 128 0.0 3.0 0.00 0.00 0.00 100 1014.6
20240303163028 69 133 1.0 3.0 0.00 0.00 0.00 100 1015.7
20240303162610 70 170 0.0 1.0 0.00 0.00 0.00 100 1014.7
20240303161537 68 115 1.0 3.0 0.00 0.00 0.00 100 1015.9
20240303160415 69 113 0.0 4.0 0.00 0.00 0.00 100 1014.7
20240303160032 68 105 0.0 5.0 0.00 0.00 0.00 100 1015.7
20240303155421 69 116 0.0 4.0 0.00 0.00 0.00 100 1014.8
20240303154536 68 117 1.0 4.0 0.00 0.00 0.00 100 1015.7
20240303154404 68 117 0.0 3.0 0.00 0.00 0.00 100 1014.7
20240303153037 68 116 1.0 5.0 0.00 0.00 0.00 100 1015.8
20240303152314 68 109 0.0 2.0 0.00 0.00 0.00 100 1014.7
20240303151532 67 151 0.0 3.0 0.00 0.00 0.00 100 1015.8
20240303150129 68 127 0.0 0.0 0.00 0.00 0.00 100 1014.7
20240303150041 67 0 0.0 1.0 0.00 0.00 0.00 100 1015.8
20240303144534 67 0 0.0 1.0 0.00 0.00 0.00 100 1015.7
20240303144014 67 134 0.0 0.0 0.00 0.00 0.00 100 1014.7
20240303143034 66 0 0.0 1.0 0.00 0.00 0.00 100 1015.5
20240303143019 67 126 0.0 0.0 0.00 0.00 0.00 100 1014.5
20240303141538 66 0 0.0 2.0 0.00 0.00 0.00 100 1015.4
20240303140044 66 0 0.0 1.0 0.00 0.00 0.00 100 1015.1
20240303134532 65 0 0.0 1.0 0.00 0.00 0.00 100 1014.8
20240303133033 65 0 0.0 0.0 0.00 0.00 0.00 100 1014.7
20240303131537 64 0 0.0 1.0 0.00 0.00 0.00 100 1014.7
20240303130031 64 0 0.0 0.0 0.00 0.00 0.00 100 1014.6
20240303124541 63 0 0.0 1.0 0.00 0.00 0.00 100 1014.7
20240303123033 63 0 0.0 0.0 0.00 0.00 0.00 100 1014.6
20240303121533 63 0 0.0 1.0 0.00 0.00 0.00 100 1014.7
20240303120032 63 0 0.0 0.0 0.00 0.00 0.00 100 1014.7
20240303114531 63 0 0.0 0.0 0.00 0.00 0.00 100 1014.6
20240303113032 63 0 0.0 1.0 0.00 0.00 0.00 100 1014.3
20240303111535 63 0 0.0 0.0 0.00 0.00 0.00 100 1014.4
20240303110032 63 0 0.0 0.0 0.00 0.00 0.00 100 1014.5
20240303104556 62 0 0.0 0.0 0.00 0.00 0.00 100 1014.4
20240303103038 62 0 0.0 0.0 0.00 0.00 0.00 100 1014.3
20240303101535 62 0 0.0 0.0 0.00 0.00 0.00 100 1014.4
20240303100035 62 0 0.0 1.0 0.00 0.00 0.00 100 1014.5
20240303094538 62 0 0.0 1.0 0.00 0.00 0.00 100 1014.3
20240303093037 62 0 0.0 1.0 0.00 0.00 0.00 100 1014.3
20240303091535 62 0 0.0 1.0 0.00 0.00 0.00 100 1014.2
20240303090039 62 111 0.0 1.0 0.00 0.00 0.00 100 1014.3
20240303084537 62 0 1.0 2.0 0.00 0.00 0.00 100 1014.5
20240303083048 62 0 0.0 2.0 0.00 0.00 0.00 100 1014.5
20240303081619 62 134 0.0 6.0 0.00 0.00 0.00 100 1014.7
20240303080031 62 137 0.0 4.0 0.00 0.00 0.00 100 1015.0
20240303074533 62 121 1.0 4.0 0.00 0.00 0.00 100 1015.0
20240303073034 62 113 1.0 5.0 0.00 0.00 0.00 100 1015.1
20240303071531 62 129 1.0 6.0 0.00 0.00 0.00 100 1015.1
20240303070032 61 108 3.0 7.0 0.00 0.00 0.00 100 1015.2
20240303064539 61 119 1.0 5.0 0.00 0.00 0.00 100 1015.0
20240303063030 61 120 2.0 5.0 0.00 0.00 0.00 100 1015.3
20240303061531 61 109 0.0 3.0 0.00 0.00 0.00 100 1015.4
20240303060037 61 116 0.0 1.0 0.00 0.00 0.00 100 1015.4
20240303054535 61 0 0.0 1.0 0.00 0.00 0.00 100 1015.7
20240303053031 62 0 0.0 1.0 0.00 0.00 0.00 100 1015.7
20240303051531 62 116 0.0 1.0 0.00 0.00 0.00 100 1016.0
20240303050031 63 116 0.0 1.0 0.00 0.00 0.00 100 1015.9
20240303044538 63 107 0.0 2.0 0.00 0.00 0.00 100 1016.0
20240303043032 63 0 0.0 0.0 0.00 0.00 0.00 100 1016.0
20240303041533 64 0 0.0 0.0 0.00 0.00 0.00 100 1016.1
20240303040035 65 117 0.0 1.0 0.00 0.00 0.00 100 1016.0
20240303034532 66 0 0.0 3.0 0.00 0.00 0.00 100 1016.1
20240303033032 66 142 1.0 3.0 0.00 0.00 0.00 100 1016.3
20240303031542 66 0 1.0 6.0 0.00 0.00 0.00 100 1016.2
20240303030032 66 141 1.0 3.0 0.00 0.00 0.00 100 1016.4
20240303024545 66 0 0.0 2.0 0.00 0.00 0.00 100 1016.3
20240303023032 66 0 0.0 2.0 0.00 0.00 0.00 100 1016.2
20240303021535 66 100 1.0 5.0 0.00 0.00 0.00 100 1016.1
20240303020035 66 0 0.0 4.0 0.00 0.00 0.00 100 1016.2
20240303014531 66 110 0.0 4.0 0.00 0.00 0.00 100 1016.0
20240303013037 66 124 0.0 2.0 0.00 0.00 0.00 100 1015.8
20240303011532 67 0 0.0 1.0 0.00 0.00 0.00 100 1015.9
20240303010033 67 125 1.0 3.0 0.00 0.00 0.00 100 1015.9
20240303004542 68 104 0.0 3.0 0.00 0.00 0.00 100 1016.0
20240303003053 68 0 1.0 4.0 0.00 0.00 0.00 100 1015.8
20240303001538 69 136 1.0 5.0 0.00 0.00 0.00 100 1015.9
20240303000044 70 109 3.0 7.0 0.00 0.00 0.00 100 1015.5
20240302234538 71 127 3.0 8.0 0.00 0.00 0.00 100 1015.6
20240302233038 72 135 2.0 4.0 0.00 0.00 0.00 100 1015.3
20240302231550 72 127 2.0 8.0 0.00 0.00 0.00 100 1015.4
20240302230041 72 107 2.0 6.0 0.00 0.00 0.00 100 1015.7
20240302224529 72 152 2.0 5.0 0.00 0.00 0.00 100 1015.7
20240302223031 72 160 1.0 3.0 0.00 0.00 0.00 100 1015.8
20240302221528 72 141 0.0 2.0 0.00 0.00 0.00 100 1016.0
20240302220031 71 148 0.0 3.0 0.00 0.00 0.00 100 1016.1
20240302214538 71 153 0.0 3.0 0.00 0.00 0.00 100 1016.3
20240302213029 70 74 0.0 1.0 0.00 0.00 0.00 100 1016.3
20240302211528 70 120 1.0 3.0 0.00 0.00 0.00 100 1016.3
20240302210035 70 188 0.0 3.0 0.00 0.00 0.00 100 1016.3
20240302204531 69 136 1.0 4.0 0.00 0.00 0.00 100 1016.3
20240302203038 69 0 1.0 4.0 0.00 0.00 0.00 100 1016.6
20240302201528 69 115 1.0 4.0 0.00 0.00 0.00 100 1016.8
20240302200032 69 110 1.0 2.0 0.00 0.00 0.00 100 1016.8
20240302194543 69 141 0.0 2.0 0.00 0.00 0.00 100 1017.1
20240302193029 69 147 0.0 2.0 0.00 0.00 0.00 100 1017.2
20240302191530 68 0 0.0 4.0 0.00 0.00 0.00 100 1017.4
20240302190032 68 114 1.0 4.0 0.00 0.00 0.00 100 1017.6
20240302184531 68 158 0.0 3.0 0.00 0.00 0.00 100 1018.0
20240302183030 68 148 1.0 5.0 0.00 0.00 0.00 100 1018.6
20240302181528 67 167 0.0 4.0 0.00 0.00 0.00 100 1019.0